Regional Weather Roundup
Issued by NWS

Home | Current Version | Previous Version | Text Only | Print | Product List | Glossary On
Versions: 1 2 3 4 5 6 7 8 9 10 11 12 13 14 15 16 17 18 19 20 21 22 23 24 25 26 27 28 29 30 31 32 33 34 35 36 37 38 39 40 41 42 43 44 45 46 47 48 49 50
000
ASUS43 KDMX 201206
RWRIA

WEATHER ROUNDUP FOR IOWA
NATIONAL WEATHER SERVICE DES MOINES IA
600 AM CST TUE FEB 20 2018

NOTE: "FAIR" INDICATES FEW OR NO CLOUDS BELOW 12,000 FEET WITH NO
SIGNIFICANT WEATHER AND/OR OBSTRUCTIONS TO VISIBILITY.

* - THESE STATIONS ARE NOT NWS STATIONS...THUS NOT UNDER NWS
QUALITY CONTROL.  THEY ALSO DO NOT REPORT WEATHER SUCH
AS PRECIPITATION OR FOG.

IAZ001>003-012>014-020>022-031>034-043>046-201300-
   NORTHWEST IOWA

CITY           SKY/WX    TMP DP  RH WIND       PRES   REMARKS
CARROLL *      CLOUDY    21  19  93 W12G18    29.88R WCI   9
CHEROKEE *     CLOUDY    16  14  90 NW8       29.92R WCI   5
DENISON *      CLOUDY    19  18  93 NW12      29.92R WCI   7
LE MARS *      CLOUDY    14  10  85 MISG      29.95R
ORANGE CITY *  CLOUDY    12  10  92 NW7       29.92R WCI   2
SHELDON *      CLOUDY    12   9  85 MISG      29.89R
SIOUX CITY     CLOUDY    15  11  83 NW17      29.96R WCI  -1
6HR MIN TEMP:  15; 6HR MAX TEMP:  19; 6HR PCP:  0.01;

SPENCER        CLOUDY    16  11  80 N12       29.88R WCI   3
6HR MIN TEMP:  16; 6HR MAX TEMP:  19;

STORM LAKE *   CLEAR     16  14  93 MISG      29.87S
$$

IAZ055>058-069>071-079>083-090>094-201300-
   SOUTHWEST IOWA

CITY           SKY/WX    TMP DP  RH WIND       PRES   REMARKS
ATLANTIC *     MOCLDY    23  23 100 NW16      29.89R FOG     WCI  10
AUDUBON *      CLOUDY    21  19  93 NW7       29.88R WCI  13
CLARINDA *     MIX PCPN  25  25 100 NW15G21   29.93R WCI  12
COUNCIL BLFS * LGT SNOW  19  19 100 NW13      29.92R WCI   7
CRESTON *      CLOUDY    27  25  93 NW15      29.86R FOG     WCI  15
HARLAN  *      FLURRIES  21  21 100 NW15      29.93R WCI   8
LAMONI         CLOUDY    29  27  92 NW10      29.83F WCI  20
6HR MIN TEMP:  28; 6HR MAX TEMP:  30; 6HR PCP:  0.45;

RED OAK *      MIX PCPN  23  23 100 NW12      29.91R WCI  12
SHENANDOAH *   MIX PCPN  23  23 100 NW9       29.94R WCI  13
$$

IAZ047>049-059>061-072>074-084-201300-
   CENTRAL IOWA

CITY           SKY/WX    TMP DP  RH WIND       PRES   REMARKS
AMES           CLOUDY    28  26  92 NW9       29.83F WCI  19
6HR MIN TEMP:  28; 6HR MAX TEMP:  31; 6HR PCP:  0.22;

ANKENY *       CLOUDY    28  27  93 MISG      29.86S FOG
BOONE *        CLOUDY    25  25 100 MISG      29.84R
CHARITON *     MIX PCPN  30  28  93 NW8G14    29.83F WCI  23
DES MOINES     FRZ RAIN  29  26  89 NW13      29.86R WCI  19
6HR MIN TEMP:  27; 6HR MAX TEMP:  30; 6HR PCP:  0.16;

GRINNELL*      MIX PCPN  31  31  99 W8        29.85R WCI  23
KNOXVILLE *    CLOUDY    30  28  93 NW9       29.83F FOG     WCI  22
MARSHALLTOWN   CLOUDY    31  31 100 W7        29.82S WCI  24
6HR MIN TEMP:  30; 6HR MAX TEMP:  31; 6HR PCP:  0.24;

NEWTON *       CLOUDY    30  30 100 W6        29.84S FOG     WCI  24
PELLA *        CLOUDY    30  29  96 NW6       29.86R FOG     WCI  24
PERRY *        CLOUDY    26  24  95 NW8       29.88R WCI  17
$$

IAZ004>006-015-016-023>025-035-036-201300-
   NORTH CENTRAL IOWA

CITY           SKY/WX    TMP DP  RH WIND       PRES   REMARKS
ALGONA *       CLOUDY    19 N/A N/A NW14      29.86R WCI   6
CLARION *      CLOUDY    23  23 100 NW14      29.83R WCI  11
ESTHERVILLE    CLOUDY    14  11  87 NW15      29.86R WCI  -1
6HR MIN TEMP:  14; 6HR MAX TEMP:  18; 6HR PCP: TRACE;

FORT DODGE *   CLOUDY    21  19  92 NW8       29.86R WCI  11
MASON CITY     CLOUDY    24  22  91 NW9       29.83F WCI  14
6HR MIN TEMP:  24; 6HR MAX TEMP:  29; 6HR PCP:  0.14;

FOREST CITY *  CLOUDY    23  23 100 NW6       29.83R WCI  16
WEBSTER CITY * CLOUDY    23  21  93 NW14      29.82S WCI  11
IOWA FALLS *   CLOUDY    30  29  96 NW7       29.82F WCI  23
$$

IAZ007>011-017>019-026>030-037>042-050>054-066-201300-
   NORTHEAST IOWA

CITY           SKY/WX    TMP DP  RH WIND       PRES   REMARKS
CEDAR RAPIDS   CLOUDY    33  32  96 W7        29.82R WCI  27
6HR MIN TEMP:  33; 6HR MAX TEMP:  34; 6HR PCP:  0.26;

CHARLES CITY * LGT RAIN  30  30 100 NW7       29.79F WCI  23
CLINTON *      LGT RAIN  35  35 100 N8        29.82  WCI  29
DECORAH *      CLOUDY    32  32 100 NW3       29.78S
DUBUQUE        MOCLDY    33  31  92 SE8       29.75F WCI  26
6HR MIN TEMP:  33; 6HR MAX TEMP:  34; 6HR PCP:  0.50;

MONTICELLO *   CLOUDY    34  34 100 W8        29.81R WCI  27
OELWEIN *      CLOUDY    32  32 100 W10       29.82R WCI  24
WATERLOO       FRZ RAIN  31  30  96 W3        29.81R FOG
6HR MIN TEMP:  31; 6HR MAX TEMP:  31; 6HR PCP:  0.25;

$$

IAZ064-065-067-068-078-201300-
   EAST CENTRAL IOWA

CITY           SKY/WX    TMP DP  RH WIND       PRES   REMARKS
DAVENPORT      CLOUDY    37  34  89 NW12      29.86R WCI  29
6HR MIN TEMP:  37; 6HR MAX TEMP:  40; 6HR PCP:  0.47;

IOWA CITY      CLOUDY    35  50 100 W6        29.82R WCI  30
6HR MIN TEMP:  35; 6HR MAX TEMP:  36; 6HR PCP:  0.47;

MT. PLEASANT * CLOUDY    34  34 100 CALM      29.80F FOG
MUSCATINE *    CLOUDY    36  34  93 CALM      29.82F
QUAD CITIES    CLOUDY    39  37  92 NW6       29.81F WCI  35
6HR MIN TEMP:  39; 6HR MAX TEMP:  41; 6HR PCP:  0.67;

$$

IAZ062-063-075>077-085>089-095>099-201300-
   SOUTHEAST IOWA

CITY           SKY/WX    TMP DP  RH WIND       PRES   REMARKS
BURLINGTON     CLOUDY    41  40  96 NW6       29.80R
6HR MIN TEMP:  38; 6HR MAX TEMP:  42; 6HR PCP:  0.73;

FAIRFIELD *    CLOUDY    34  32  93 NW8       29.82R FOG     WCI  27
FORT MADISON * CLOUDY    39  39 100 CALM      29.81S
KEOKUK *       CLOUDY    43  43 100 CALM      29.80R FOG
OSKALOOSA *    LGT RAIN  31  31  99 NW12      29.85R WCI  22
OTTUMWA        MIX PCPN  32  31  96 W14       29.86R FOG     WCI  22
6HR MIN TEMP:  32; 6HR MAX TEMP:  32; 6HR PCP:  0.20;

WASHINGTON *   CLOUDY    34  34 100 NW26G38   29.88R WCI  21
$$

ABBREVIATIONS USED IN REMARKS
   TC - TEMPERATURES IN CELSIUS
  WCI - WIND CHILL INDEX
   HX - HEAT INDEX
  VSB - VISIBILITY
$$




USA.gov is the U.S. government's official web portal to all federal, state and local government web resources and services.